User: anonymous   Login
Location: Fort Wayne
(41.1310°N, 85.1290°W)
Time: 05:24:41
(UTC-05:00)
Language:

COSMOS 2428 - Orbit

View from above orbital plane
View from above orbital plane
View from above satellite
View from above satellite

Ground track
Ground track

The orbit data is extracted from the following two-line orbital elements,

1 31792U 07029A   14352.10849194  .00000386  00000-0  23422-3 0  2807
2 31792 070.9773 164.2717 0011830 223.1503 255.1761 14.12497685385284
Epoch (UTC): 18 December 2014 02:36:13
Eccentricity: 0.0011830
inclination: 70.9773°
perigee height: 842 km
apogee height: 859 km
right ascension of ascending node: 164.2717°
argument of perigee: 223.1503°
revolutions per day: 14.12497685
mean anomaly at epoch: 255.1761°
orbit number at epoch: 38528

The dashed part of the orbit path shows where the satellite is in the earth's shadow,  

DLR